Weather History for KRAL - September, 2013

Change the Weather History Date:

Sunday, September 29, 2013

  Actual Average Record
Temperature  
Mean Temperature 72 °F 73 °F  
Max Temperature 90 °F 87 °F 106 °F (1924)
Min Temperature 54 °F 59 °F 41 °F (1909)
Degree Days  
Heating Degree Days 0 0  
Month to date heating degree days 0 0  
Since 1 July heating degree days 0 0  
Cooling Degree Days 7 8  
Month to date cooling degree days 386 326  
Year to date cooling degree days 1855 1584  
Growing Degree Days 22 (Base 50)    
Moisture  
Dew Point 33 °F    
Average Humidity 28    
Maximum Humidity 47    
Minimum Humidity 8    
Precipitation  
Precipitation 0.00 in 0.02 in 0.14 in (1919)
Month to date precipitation 0.00 0.24  
Year to date precipitation 2.37 9.58  
Since 1 July precipitation 0.16 0.39  
Snow  
Snow 0.00 in - - ()
Month to date snowfall 0.0  
Year to date snowfall 0.0  
Since 1 July snowfall 0.0  
Snow Depth 0.00 in    
Sea Level Pressure  
Sea Level Pressure 29.99 in    
Wind  
Wind Speed 5 mph (NNW)    
Max Wind Speed 14 mph    
Max Gust Speed 20 mph    
Visibility 10 miles    
Events      
T = Trace of Precipitation, MM = Missing Value Source: NWS Daily Summary

Daily Weather History Graph

Daily Weather History Graph

Search for Another Location

Airport or City:

Trip Planner

Search our weather history database for the weather conditions in past years. The results will help you decide how hot, cold, wet, or windy it might be!

Date:

Astronomy

Sep. 29, 2013 Rise Set
Actual Time 6:43 AM PDT 6:36 PM PDT
Civil Twilight 6:18 AM PDT 7:01 PM PDT
Nautical Twilight 5:49 AM PDT 7:30 PM PDT
Astronomical Twilight 5:19 AM PDT 7:59 PM PDT
Moon 1:40 AM PDT (9/29) 3:24 PM PDT (9/29)
Length of Visible Light 12h 43m
Length of Day
11h 53m
Waning Crescent, 26% of the Moon is Illuminated
Sep 29
Waning Crescent
Oct 4
New
Oct 11
First Quarter
Oct 18
Full
Oct 26
Last Quarter

Hourly Weather History & Observations

Time (PDT) Temp. Dew Point Humidity Pressure Visibility Wind Dir Wind Speed Gust Speed Precip Events Conditions
12:53 AM 62.1 °F 37.9 °F 41% 30.02 in 10.0 mi Calm Calm - N/A   Clear
1:53 AM 61.0 °F 36.0 °F 39% 30.01 in 10.0 mi East 3.5 mph - N/A   Clear
2:53 AM 61.0 °F 36.0 °F 39% 30.01 in 10.0 mi ENE 3.5 mph - N/A   Clear
3:53 AM 57.0 °F 37.0 °F 47% 30.00 in 10.0 mi Calm Calm - N/A   Clear
4:53 AM 59.0 °F 33.1 °F 38% 30.00 in 10.0 mi NE 4.6 mph - N/A   Clear
5:53 AM 57.0 °F 36.0 °F 45% 30.02 in 10.0 mi East 3.5 mph - N/A   Clear
6:53 AM 55.9 °F 35.1 °F 45% 30.04 in 10.0 mi NE 4.6 mph - N/A   Clear
7:53 AM 59.0 °F 37.0 °F 44% 30.03 in 10.0 mi East 3.5 mph - N/A   Clear
8:53 AM 66.0 °F 35.1 °F 32% 30.04 in 10.0 mi NNE 4.6 mph - N/A   Clear
9:53 AM 73.9 °F 32.0 °F 21% 30.03 in 10.0 mi East 3.5 mph - N/A   Clear
10:53 AM 81.0 °F 28.9 °F 15% 30.02 in 10.0 mi Calm Calm - N/A   Clear
11:53 AM 84.9 °F 21.9 °F 10% 30.01 in 10.0 mi West 4.6 mph - N/A   Clear
12:53 PM 87.1 °F 23.0 °F 10% 29.99 in 10.0 mi Variable 5.8 mph - N/A   Clear
1:53 PM 88.0 °F 26.1 °F 11% 29.95 in 10.0 mi West 10.4 mph - N/A   Clear
2:53 PM 89.1 °F 21.0 °F 8% 29.93 in 10.0 mi West 8.1 mph 16.1 mph N/A   Clear
3:53 PM 89.1 °F 25.0 °F 10% 29.92 in 10.0 mi West 9.2 mph - N/A   Clear
4:53 PM 86.0 °F 26.1 °F 11% 29.92 in 10.0 mi West 13.8 mph - N/A   Clear
5:53 PM 82.9 °F 30.0 °F 15% 29.93 in 10.0 mi West 9.2 mph 17.3 mph N/A   Clear
6:53 PM 77.0 °F 35.1 °F 22% 29.94 in 10.0 mi West 8.1 mph - N/A   Clear
7:53 PM 73.9 °F 39.0 °F 28% 29.96 in 10.0 mi West 4.6 mph - N/A   Clear
8:53 PM 72.0 °F 41.0 °F 33% 29.98 in 10.0 mi Calm Calm - N/A   Clear
9:53 PM 68.0 °F 42.1 °F 39% 29.99 in 10.0 mi Calm Calm - N/A   Clear
10:53 PM 66.0 °F 41.0 °F 40% 29.98 in 10.0 mi Calm Calm - N/A   Clear
11:53 PM 64.0 °F 42.1 °F 45% 29.97 in 10.0 mi Calm Calm - N/A   Clear